Location: Tierra del Sol
(32.6128°N, 116.3319°W)
Time: 22:22:33
(UTC-07:00)

Vanguard 2 - Pass Details

Date: 25 April 2018
Orbit: 552 x 2940 km, 32.9° (Epoch: 22 May)

Event Time Altitude Azimuth Distance (km) Brightness Sun altitude
Rises 04:39:38 0° 266° (W) 2,924 - -17.3°
Reaches altitude 10° 04:44:19 10° 220° (SW) 1,827 - -16.5°
Maximum altitude 04:44:44 10° 214° (SW) 1,811 - -16.4°
Drops below altitude 10° 04:45:10 10° 208° (SSW) 1,815 - -16.3°
Exits shadow 04:47:24 - 179° (S) 2,127 9.6 -15.9°
Sets 04:49:39 0° 160° (SSE) 2,775 10.3 -15.5°
